Location: Drummondville
(45.8830°N, 72.4830°W)
Time: 17:20:26
(UTC-04:00)

Vanguard 2 - All Passes

Search period start: 19 April 2018 00:00
Search period end: 29 April 2018 00:00
Orbit: 553 x 2939 km, 32.9° (Epoch: 18 April)

Date Brightness Start Highest point End Pass type
(mag) Time Alt. Az. Time Alt. Az. Time Alt. Az.
19 Apr - 01:47:04 10° SW 01:50:19 17° S 01:53:05 10° SE night (unlit)
19 Apr - 03:56:38 10° SSW 03:57:40 11° SSW 03:58:41 10° S visible
19 Apr - 23:56:20 10° SSW 00:00:26 16° S 00:03:42 10° SE night (unlit)
20 Apr - 02:04:49 10° SW 02:08:07 17° S 02:10:56 10° SE night (unlit)
20 Apr - 22:06:56 10° S 22:10:03 12° SSE 22:12:44 10° SE visible
21 Apr - 00:13:31 10° SW 00:18:19 19° S 00:21:58 10° SE night (unlit)
21 Apr - 02:22:45 10° SW 02:25:54 16° SSW 02:28:35 10° SSE night (unlit)
21 Apr - 22:22:44 10° SSW 22:27:59 16° SSE 22:32:03 10° SE visible
22 Apr - 00:31:01 10° SW 00:36:09 22° S 00:40:00 10° SE night (unlit)
22 Apr - 02:40:56 10° SW 02:43:37 14° SSW 02:45:58 10° SSE night (unlit)
22 Apr - 20:35:35 10° SSE 20:37:06 10° SSE 20:38:32 10° SSE visible
22 Apr - 22:39:28 10° SSW 22:45:54 21° S 22:50:37 10° ESE visible
23 Apr - 00:48:45 10° SW 00:53:59 23° S 00:57:53 10° SE night (unlit)
23 Apr - 02:59:33 10° SW 03:01:18 12° SSW 03:02:54 10° S night (unlit)
23 Apr - 20:49:19 10° S 20:55:02 15° SSE 20:59:40 10° SE visible
23 Apr - 22:56:38 10° SW 23:03:49 24° S 23:08:50 10° ESE visible
24 Apr - 01:06:37 10° WSW 01:11:46 22° SSW 01:15:37 10° SE night (unlit)
24 Apr - 21:05:17 10° SSW 21:12:59 20° SSE 21:18:43 10° ESE visible
24 Apr - 23:14:07 10° SW 23:21:42 27° S 23:26:52 10° ESE visible
25 Apr - 01:24:40 10° WSW 01:29:30 21° SSW 01:33:12 10° SSE night (unlit)
25 Apr - 19:17:13 10° S 19:21:37 12° SSE 19:25:30 10° SE daylight
25 Apr - 21:21:58 10° SSW 21:30:55 25° SSE 21:37:13 10° ESE visible
25 Apr - 23:31:49 10° WSW 23:39:34 29° S 23:44:47 10° SE visible
26 Apr - 01:42:53 10° WSW 01:47:11 18° SSW 01:50:34 10° SSE night (unlit)
26 Apr - 19:31:39 10° S 19:39:32 17° SSE 19:45:49 10° ESE daylight
26 Apr - 21:39:04 10° SW 21:48:51 29° S 21:55:27 10° ESE visible
26 Apr - 23:49:39 10° WSW 23:57:23 30° S 00:02:34 10° SE visible
27 Apr - 02:01:23 10° WSW 02:04:48 15° SSW 02:07:37 10° S night (unlit)
27 Apr - 19:47:32 10° SSW 19:57:26 22° SSE 20:04:51 10° ESE daylight
27 Apr - 21:56:29 10° SW 22:06:46 33° S 22:13:31 10° ESE visible
28 Apr - 00:07:39 10° WSW 00:15:10 29° SSW 00:20:16 10° SE visible
28 Apr - 02:20:39 10° SW 02:22:19 11° SW 02:23:50 10° SSW night (unlit)
28 Apr - 17:59:58 10° SSE 18:05:39 13° SE 18:10:43 10° SE daylight
28 Apr - 20:04:05 10° SSW 20:15:21 27° SSE 20:23:24 10° ESE daylight
28 Apr - 22:14:07 10° WSW 22:24:39 35° S 22:31:28 10° ESE visible
